#datetime,building,power
2022-06-13T00:00:00,mfh,12.36
2022-06-13T00:01:00,mfh,12.40
2022-06-13T00:02:00,mfh,12.52
2022-06-13T00:03:00,mfh,11.74
2022-06-13T00:04:00,mfh,12.36
2022-06-13T00:05:00,mfh,11.87
2022-06-13T00:06:00,mfh,11.86
2022-06-13T00:07:00,mfh,11.77
2022-06-13T00:08:00,mfh,12.34
2022-06-13T00:09:00,mfh,12.37
2022-06-13T00:10:00,mfh,12.37
2022-06-13T00:11:00,mfh,12.40
2022-06-13T00:12:00,mfh,11.71
2022-06-13T00:13:00,mfh,11.56
2022-06-13T00:14:00,mfh,12.20
2022-06-13T00:15:00,mfh,11.69
2022-06-13T00:16:00,mfh,12.34
2022-06-13T00:17:00,mfh,13.93
2022-06-13T00:18:00,mfh,13.22
2022-06-13T00:19:00,mfh,13.15
2022-06-13T00:20:00,mfh,12.74
2022-06-13T00:21:00,mfh,11.66
2022-06-13T00:22:00,mfh,11.65
2022-06-13T00:23:00,mfh,11.57
2022-06-13T00:24:00,mfh,12.21
2022-06-13T00:25:00,mfh,12.23
2022-06-13T00:26:00,mfh,12.53
2022-06-13T00:27:00,mfh,13.58
2022-06-13T00:28:00,mfh,11.94
2022-06-13T00:29:00,mfh,11.88
2022-06-13T00:30:00,mfh,12.22
2022-06-13T00:31:00,mfh,11.81
2022-06-13T00:32:00,mfh,11.73
2022-06-13T00:33:00,mfh,12.87
2022-06-13T00:34:00,mfh,12.36
2022-06-13T00:35:00,mfh,12.40
2022-06-13T00:36:00,mfh,11.60
2022-06-13T00:37:00,mfh,11.52
2022-06-13T00:38:00,mfh,11.61
2022-06-13T00:39:00,mfh,11.91
2022-06-13T00:40:00,mfh,12.92
2022-06-13T00:41:00,mfh,12.25
2022-06-13T00:42:00,mfh,12.22
2022-06-13T00:43:00,mfh,13.67
2022-06-13T00:44:00,mfh,12.50
2022-06-13T00:45:00,mfh,12.03
2022-06-13T00:46:00,mfh,11.78
2022-06-13T00:47:00,mfh,11.78
2022-06-13T00:48:00,mfh,12.22
2022-06-13T00:49:00,mfh,13.12
2022-06-13T00:50:00,mfh,12.77
2022-06-13T00:51:00,mfh,12.70
2022-06-13T00:52:00,mfh,12.51
2022-06-13T00:53:00,mfh,12.31
2022-06-13T00:54:00,mfh,12.07
2022-06-13T00:55:00,mfh,12.03
2022-06-13T00:56:00,mfh,12.07
2022-06-13T00:57:00,mfh,12.60
2022-06-13T00:58:00,mfh,12.62
2022-06-13T00:59:00,mfh,12.46
2022-06-13T01:00:00,mfh,12.52
2022-06-13T01:01:00,mfh,11.93
2022-06-13T01:02:00,mfh,12.37
2022-06-13T01:03:00,mfh,11.91
2022-06-13T01:04:00,mfh,11.76
2022-06-13T01:05:00,mfh,12.41
2022-06-13T01:06:00,mfh,12.39
2022-06-13T01:07:00,mfh,12.36
2022-06-13T01:08:00,mfh,12.30
2022-06-13T01:09:00,mfh,11.56
2022-06-13T01:10:00,mfh,11.54
2022-06-13T01:11:00,mfh,11.63
2022-06-13T01:12:00,mfh,11.94
2022-06-13T01:13:00,mfh,12.66
2022-06-13T01:14:00,mfh,12.64
2022-06-13T01:15:00,mfh,12.65
2022-06-13T01:16:00,mfh,12.49
2022-06-13T01:17:00,mfh,12.48
2022-06-13T01:18:00,mfh,11.81
2022-06-13T01:19:00,mfh,11.81
2022-06-13T01:20:00,mfh,11.81
2022-06-13T01:21:00,mfh,12.35
2022-06-13T01:22:00,mfh,12.23
2022-06-13T01:23:00,mfh,12.18
2022-06-13T01:24:00,mfh,12.18
2022-06-13T01:25:00,mfh,11.58
2022-06-13T01:26:00,mfh,11.83
2022-06-13T01:27:00,mfh,11.92
2022-06-13T01:28:00,mfh,11.54
2022-06-13T01:29:00,mfh,12.11
2022-06-13T01:30:00,mfh,12.14
2022-06-13T01:31:00,mfh,12.32
2022-06-13T01:32:00,mfh,12.31
2022-06-13T01:33:00,mfh,12.34
2022-06-13T01:34:00,mfh,11.65
2022-06-13T01:35:00,mfh,12.11
2022-06-13T01:36:00,mfh,11.95
2022-06-13T01:37:00,mfh,12.60
2022-06-13T01:38:00,mfh,12.65
2022-06-13T01:39:00,mfh,12.80
2022-06-13T01:40:00,mfh,12.72
2022-06-13T01:41:00,mfh,12.53
2022-06-13T01:42:00,mfh,12.86
2022-06-13T01:43:00,mfh,11.89
2022-06-13T01:44:00,mfh,11.69
2022-06-13T01:45:00,mfh,11.68
2022-06-13T01:46:00,mfh,12.62
2022-06-13T01:47:00,mfh,12.37
2022-06-13T01:48:00,mfh,12.38
2022-06-13T01:49:00,mfh,12.46
2022-06-13T01:50:00,mfh,11.75
2022-06-13T01:51:00,mfh,11.66
2022-06-13T01:52:00,mfh,12.22
2022-06-13T01:53:00,mfh,11.58
2022-06-13T01:54:00,mfh,12.22
2022-06-13T01:55:00,mfh,12.46
2022-06-13T01:56:00,mfh,12.37
2022-06-13T01:57:00,mfh,12.61
2022-06-13T01:58:00,mfh,11.91
2022-06-13T01:59:00,mfh,11.88
2022-06-13T02:00:00,mfh,11.96
2022-06-13T02:01:00,mfh,12.78
2022-06-13T02:02:00,mfh,13.97
2022-06-13T02:03:00,mfh,14.02
2022-06-13T02:04:00,mfh,13.35
2022-06-13T02:05:00,mfh,12.49
2022-06-13T02:06:00,mfh,11.82
2022-06-13T02:07:00,mfh,11.29
2022-06-13T02:08:00,mfh,11.21
2022-06-13T02:09:00,mfh,11.21
2022-06-13T02:10:00,mfh,11.27
2022-06-13T02:11:00,mfh,12.59
2022-06-13T02:12:00,mfh,12.48
2022-06-13T02:13:00,mfh,12.17
2022-06-13T02:14:00,mfh,12.13
2022-06-13T02:15:00,mfh,11.42
2022-06-13T02:16:00,mfh,11.32
2022-06-13T02:17:00,mfh,12.09
2022-06-13T02:18:00,mfh,12.96
2022-06-13T02:19:00,mfh,12.02
2022-06-13T02:20:00,mfh,12.87
2022-06-13T02:21:00,mfh,12.78
2022-06-13T02:22:00,mfh,11.79
2022-06-13T02:23:00,mfh,11.71
2022-06-13T02:24:00,mfh,11.76
2022-06-13T02:25:00,mfh,11.67
2022-06-13T02:26:00,mfh,11.59
2022-06-13T02:27:00,mfh,12.13
2022-06-13T02:28:00,mfh,12.20
2022-06-13T02:29:00,mfh,12.11
2022-06-13T02:30:00,mfh,11.22
2022-06-13T02:31:00,mfh,11.22
2022-06-13T02:32:00,mfh,11.23
2022-06-13T02:33:00,mfh,11.23
2022-06-13T02:34:00,mfh,11.15
2022-06-13T02:35:00,mfh,11.80
2022-06-13T02:36:00,mfh,11.78
2022-06-13T02:37:00,mfh,11.85
2022-06-13T02:38:00,mfh,12.15
2022-06-13T02:39:00,mfh,11.08
2022-06-13T02:40:00,mfh,11.17
2022-06-13T02:41:00,mfh,11.17
2022-06-13T02:42:00,mfh,11.12
2022-06-13T02:43:00,mfh,12.12
2022-06-13T02:44:00,mfh,12.10
2022-06-13T02:45:00,mfh,12.12
2022-06-13T02:46:00,mfh,12.13
2022-06-13T02:47:00,mfh,11.44
2022-06-13T02:48:00,mfh,11.58
2022-06-13T02:49:00,mfh,11.47
2022-06-13T02:50:00,mfh,11.48
2022-06-13T02:51:00,mfh,12.05
2022-06-13T02:52:00,mfh,12.56
2022-06-13T02:53:00,mfh,11.93
2022-06-13T02:54:00,mfh,12.82
2022-06-13T02:55:00,mfh,11.25
2022-06-13T02:56:00,mfh,11.36
2022-06-13T02:57:00,mfh,11.31
2022-06-13T02:58:00,mfh,11.93
2022-06-13T02:59:00,mfh,12.20
2022-06-13T03:00:00,mfh,12.09
2022-06-13T03:01:00,mfh,12.20
2022-06-13T03:02:00,mfh,12.10
2022-06-13T03:03:00,mfh,11.67
2022-06-13T03:04:00,mfh,12.50
2022-06-13T03:05:00,mfh,11.49
2022-06-13T03:06:00,mfh,11.73
2022-06-13T03:07:00,mfh,12.31
2022-06-13T03:08:00,mfh,12.43
2022-06-13T03:09:00,mfh,12.50
2022-06-13T03:10:00,mfh,12.51
2022-06-13T03:11:00,mfh,12.58
2022-06-13T03:12:00,mfh,11.87
2022-06-13T03:13:00,mfh,11.85
2022-06-13T03:14:00,mfh,11.92
2022-06-13T03:15:00,mfh,12.02
2022-06-13T03:16:00,mfh,12.83
2022-06-13T03:17:00,mfh,12.23
2022-06-13T03:18:00,mfh,12.24
2022-06-13T03:19:00,mfh,13.02
2022-06-13T03:20:00,mfh,11.46
2022-06-13T03:21:00,mfh,11.46
2022-06-13T03:22:00,mfh,11.57
2022-06-13T03:23:00,mfh,11.57
2022-06-13T03:24:00,mfh,12.12
2022-06-13T03:25:00,mfh,12.06
2022-06-13T03:26:00,mfh,11.99
2022-06-13T03:27:00,mfh,12.00
2022-06-13T03:28:00,mfh,11.29
2022-06-13T03:29:00,mfh,11.50
2022-06-13T03:30:00,mfh,11.48
2022-06-13T03:31:00,mfh,11.46
2022-06-13T03:32:00,mfh,12.16
2022-06-13T03:33:00,mfh,12.15
2022-06-13T03:34:00,mfh,12.17
2022-06-13T03:35:00,mfh,12.29
2022-06-13T03:36:00,mfh,11.70
2022-06-13T03:37:00,mfh,12.34
2022-06-13T03:38:00,mfh,11.81
2022-06-13T03:39:00,mfh,11.43
2022-06-13T03:40:00,mfh,12.07
2022-06-13T03:41:00,mfh,12.10
2022-06-13T03:42:00,mfh,12.22
2022-06-13T03:43:00,mfh,12.14
2022-06-13T03:44:00,mfh,11.50
2022-06-13T03:45:00,mfh,12.29
2022-06-13T03:46:00,mfh,12.33
2022-06-13T03:47:00,mfh,12.33
2022-06-13T03:48:00,mfh,12.91
2022-06-13T03:49:00,mfh,12.00
2022-06-13T03:50:00,mfh,13.62
2022-06-13T03:51:00,mfh,12.02
2022-06-13T03:52:00,mfh,11.54
2022-06-13T03:53:00,mfh,11.53
2022-06-13T03:54:00,mfh,12.04
2022-06-13T03:55:00,mfh,11.52
2022-06-13T03:56:00,mfh,11.90
2022-06-13T03:57:00,mfh,12.22
2022-06-13T03:58:00,mfh,12.53
2022-06-13T03:59:00,mfh,12.49
2022-06-13T04:00:00,mfh,12.45
2022-06-13T04:01:00,mfh,11.67
2022-06-13T04:02:00,mfh,11.47
2022-06-13T04:03:00,mfh,11.81
2022-06-13T04:04:00,mfh,11.45
2022-06-13T04:05:00,mfh,12.20
2022-06-13T04:06:00,mfh,12.45
2022-06-13T04:07:00,mfh,12.14
2022-06-13T04:08:00,mfh,12.15
2022-06-13T04:09:00,mfh,11.47
2022-06-13T04:10:00,mfh,11.47
2022-06-13T04:11:00,mfh,11.45
2022-06-13T04:12:00,mfh,11.40
2022-06-13T04:13:00,mfh,11.91
2022-06-13T04:14:00,mfh,11.90
2022-06-13T04:15:00,mfh,11.91
2022-06-13T04:16:00,mfh,12.11
2022-06-13T04:17:00,mfh,11.37
2022-06-13T04:18:00,mfh,11.44
2022-06-13T04:19:00,mfh,11.43
2022-06-13T04:20:00,mfh,11.42
2022-06-13T04:21:00,mfh,12.30
2022-06-13T04:22:00,mfh,12.13
2022-06-13T04:23:00,mfh,12.32
2022-06-13T04:24:00,mfh,12.40
2022-06-13T04:25:00,mfh,11.34
2022-06-13T04:26:00,mfh,11.34
2022-06-13T04:27:00,mfh,11.29
2022-06-13T04:28:00,mfh,11.26
2022-06-13T04:29:00,mfh,12.40
2022-06-13T04:30:00,mfh,11.82
2022-06-13T04:31:00,mfh,11.86
2022-06-13T04:32:00,mfh,11.84
2022-06-13T04:33:00,mfh,11.80
2022-06-13T04:34:00,mfh,11.22
2022-06-13T04:35:00,mfh,11.29
2022-06-13T04:36:00,mfh,11.26
2022-06-13T04:37:00,mfh,12.44
2022-06-13T04:38:00,mfh,22.55
2022-06-13T04:39:00,mfh,25.28
2022-06-13T04:40:00,mfh,25.45
2022-06-13T04:41:00,mfh,25.31
2022-06-13T04:42:00,mfh,24.64
2022-06-13T04:43:00,mfh,24.57
2022-06-13T04:44:00,mfh,24.40
2022-06-13T04:45:00,mfh,25.84
2022-06-13T04:46:00,mfh,23.55
2022-06-13T04:47:00,mfh,23.55
2022-06-13T04:48:00,mfh,23.29
2022-06-13T04:49:00,mfh,23.89
2022-06-13T04:50:00,mfh,22.57
2022-06-13T04:51:00,mfh,22.56
2022-06-13T04:52:00,mfh,22.54
2022-06-13T04:53:00,mfh,22.59
2022-06-13T04:54:00,mfh,23.22
2022-06-13T04:55:00,mfh,23.14
2022-06-13T04:56:00,mfh,23.12
2022-06-13T04:57:00,mfh,23.22
2022-06-13T04:58:00,mfh,22.51
2022-06-13T04:59:00,mfh,23.26
2022-06-13T05:00:00,mfh,22.52
2022-06-13T05:01:00,mfh,38.54
2022-06-13T05:02:00,mfh,40.39
2022-06-13T05:03:00,mfh,40.28
2022-06-13T05:04:00,mfh,40.29
2022-06-13T05:05:00,mfh,41.03
2022-06-13T05:06:00,mfh,40.45
2022-06-13T05:07:00,mfh,41.05
2022-06-13T05:08:00,mfh,41.14
2022-06-13T05:09:00,mfh,40.56
2022-06-13T05:10:00,mfh,42.02
2022-06-13T05:11:00,mfh,41.05
2022-06-13T05:12:00,mfh,41.11
2022-06-13T05:13:00,mfh,41.08
2022-06-13T05:14:00,mfh,40.26
2022-06-13T05:15:00,mfh,40.33
2022-06-13T05:16:00,mfh,40.85
2022-06-13T05:17:00,mfh,40.75
2022-06-13T05:18:00,mfh,41.64
2022-06-13T05:19:00,mfh,41.45
2022-06-13T05:20:00,mfh,41.02
2022-06-13T05:21:00,mfh,40.99
2022-06-13T05:22:00,mfh,40.20
2022-06-13T05:23:00,mfh,40.26
2022-06-13T05:24:00,mfh,40.79
2022-06-13T05:25:00,mfh,40.36
2022-06-13T05:26:00,mfh,40.99
2022-06-13T05:27:00,mfh,41.05
2022-06-13T05:28:00,mfh,40.94
2022-06-13T05:29:00,mfh,41.01
2022-06-13T05:30:00,mfh,40.33
2022-06-13T05:31:00,mfh,41.99
2022-06-13T05:32:00,mfh,40.89
2022-06-13T05:33:00,mfh,41.09
2022-06-13T05:34:00,mfh,42.32
2022-06-13T05:35:00,mfh,42.16
2022-06-13T05:36:00,mfh,41.94
2022-06-13T05:37:00,mfh,40.85
2022-06-13T05:38:00,mfh,41.44
2022-06-13T05:39:00,mfh,41.43
2022-06-13T05:40:00,mfh,41.38
2022-06-13T05:41:00,mfh,41.41
2022-06-13T05:42:00,mfh,41.39
2022-06-13T05:43:00,mfh,40.79
2022-06-13T05:44:00,mfh,41.33
2022-06-13T05:45:00,mfh,42.40
2022-06-13T05:46:00,mfh,40.34
2022-06-13T05:47:00,mfh,40.19
2022-06-13T05:48:00,mfh,40.25
2022-06-13T05:49:00,mfh,40.37
2022-06-13T05:50:00,mfh,40.29
2022-06-13T05:51:00,mfh,41.16
2022-06-13T05:52:00,mfh,41.43
2022-06-13T05:53:00,mfh,41.50
2022-06-13T05:54:00,mfh,40.55
2022-06-13T05:55:00,mfh,40.62
2022-06-13T05:56:00,mfh,40.54
2022-06-13T05:57:00,mfh,40.46
2022-06-13T05:58:00,mfh,41.21
2022-06-13T05:59:00,mfh,40.97
2022-06-13T06:00:00,mfh,40.88
2022-06-13T06:01:00,mfh,40.85
2022-06-13T06:02:00,mfh,40.45
2022-06-13T06:03:00,mfh,40.26
2022-06-13T06:04:00,mfh,40.33
2022-06-13T06:05:00,mfh,40.26
2022-06-13T06:06:00,mfh,40.31
2022-06-13T06:07:00,mfh,41.26
2022-06-13T06:08:00,mfh,41.51
2022-06-13T06:09:00,mfh,40.95
2022-06-13T06:10:00,mfh,40.98
2022-06-13T06:11:00,mfh,40.22
2022-06-13T06:12:00,mfh,39.99
2022-06-13T06:13:00,mfh,40.31
2022-06-13T06:14:00,mfh,40.21
2022-06-13T06:15:00,mfh,40.95
2022-06-13T06:16:00,mfh,40.90
2022-06-13T06:17:00,mfh,40.93
2022-06-13T06:18:00,mfh,48.07
2022-06-13T06:19:00,mfh,48.61
2022-06-13T06:20:00,mfh,48.89
2022-06-13T06:21:00,mfh,48.73
2022-06-13T06:22:00,mfh,48.45
2022-06-13T06:23:00,mfh,48.64
2022-06-13T06:24:00,mfh,48.87
2022-06-13T06:25:00,mfh,48.70
2022-06-13T06:26:00,mfh,40.72
2022-06-13T06:27:00,mfh,40.14
2022-06-13T06:28:00,mfh,40.09
2022-06-13T06:29:00,mfh,40.10
2022-06-13T06:30:00,mfh,40.17
2022-06-13T06:31:00,mfh,41.59
2022-06-13T06:32:00,mfh,40.65
2022-06-13T06:33:00,mfh,40.26
2022-06-13T06:34:00,mfh,40.11
2022-06-13T06:35:00,mfh,39.92
2022-06-13T06:36:00,mfh,41.18
2022-06-13T06:37:00,mfh,40.92
2022-06-13T06:38:00,mfh,40.78
2022-06-13T06:39:00,mfh,40.78
2022-06-13T06:40:00,mfh,40.64
2022-06-13T06:41:00,mfh,39.90
2022-06-13T06:42:00,mfh,39.92
2022-06-13T06:43:00,mfh,39.83
2022-06-13T06:44:00,mfh,39.86
2022-06-13T06:45:00,mfh,40.47
2022-06-13T06:46:00,mfh,40.18
2022-06-13T06:47:00,mfh,40.06
2022-06-13T06:48:00,mfh,40.31
2022-06-13T06:49:00,mfh,39.40
2022-06-13T06:50:00,mfh,39.39
2022-06-13T06:51:00,mfh,39.38
2022-06-13T06:52:00,mfh,39.49
2022-06-13T06:53:00,mfh,40.30
2022-06-13T06:54:00,mfh,40.18
2022-06-13T06:55:00,mfh,40.56
2022-06-13T06:56:00,mfh,40.18
2022-06-13T06:57:00,mfh,39.41
2022-06-13T06:58:00,mfh,40.17
2022-06-13T06:59:00,mfh,39.35
2022-06-13T07:00:00,mfh,39.84
2022-06-13T07:01:00,mfh,40.45
2022-06-13T07:02:00,mfh,40.41
2022-06-13T07:03:00,mfh,40.41
2022-06-13T07:04:00,mfh,40.06
2022-06-13T07:05:00,mfh,40.16
2022-06-13T07:06:00,mfh,39.74
2022-06-13T07:07:00,mfh,39.81
2022-06-13T07:08:00,mfh,39.80
2022-06-13T07:09:00,mfh,40.46
2022-06-13T07:10:00,mfh,40.41
2022-06-13T07:11:00,mfh,40.80
2022-06-13T07:12:00,mfh,40.25
2022-06-13T07:13:00,mfh,39.85
2022-06-13T07:14:00,mfh,39.98
2022-06-13T07:15:00,mfh,39.78
2022-06-13T07:16:00,mfh,39.80
2022-06-13T07:17:00,mfh,40.38
2022-06-13T07:18:00,mfh,41.16
2022-06-13T07:19:00,mfh,41.25
2022-06-13T07:20:00,mfh,41.31
2022-06-13T07:21:00,mfh,40.58
2022-06-13T07:22:00,mfh,39.70
2022-06-13T07:23:00,mfh,39.68
2022-06-13T07:24:00,mfh,39.91
2022-06-13T07:25:00,mfh,40.44
2022-06-13T07:26:00,mfh,40.34
2022-06-13T07:27:00,mfh,40.39
2022-06-13T07:28:00,mfh,40.44
2022-06-13T07:29:00,mfh,40.08
2022-06-13T07:30:00,mfh,40.36
2022-06-13T07:31:00,mfh,39.67
2022-06-13T07:32:00,mfh,40.10
2022-06-13T07:33:00,mfh,40.73
2022-06-13T07:34:00,mfh,40.29
2022-06-13T07:35:00,mfh,40.32
2022-06-13T07:36:00,mfh,40.33
2022-06-13T07:37:00,mfh,39.57
2022-06-13T07:38:00,mfh,39.58
2022-06-13T07:39:00,mfh,39.46
2022-06-13T07:40:00,mfh,39.57
2022-06-13T07:41:00,mfh,40.26
2022-06-13T07:42:00,mfh,40.24
2022-06-13T07:43:00,mfh,40.30
2022-06-13T07:44:00,mfh,40.34
2022-06-13T07:45:00,mfh,40.38
2022-06-13T07:46:00,mfh,39.62
2022-06-13T07:47:00,mfh,40.85
2022-06-13T07:48:00,mfh,39.73
2022-06-13T07:49:00,mfh,39.49
2022-06-13T07:50:00,mfh,40.05
2022-06-13T07:51:00,mfh,40.68
2022-06-13T07:52:00,mfh,40.45
2022-06-13T07:53:00,mfh,40.14
2022-06-13T07:54:00,mfh,39.47
2022-06-13T07:55:00,mfh,39.60
2022-06-13T07:56:00,mfh,39.95
2022-06-13T07:57:00,mfh,39.48
2022-06-13T07:58:00,mfh,39.79
2022-06-13T07:59:00,mfh,40.04
2022-06-13T08:00:00,mfh,40.46
2022-06-13T08:01:00,mfh,40.16
2022-06-13T08:02:00,mfh,39.77
2022-06-13T08:03:00,mfh,39.75
2022-06-13T08:04:00,mfh,40.10
2022-06-13T08:05:00,mfh,39.64
2022-06-13T08:06:00,mfh,40.70
2022-06-13T08:07:00,mfh,40.46
2022-06-13T08:08:00,mfh,40.32
2022-06-13T08:09:00,mfh,40.30
2022-06-13T08:10:00,mfh,39.49
2022-06-13T08:11:00,mfh,39.65
2022-06-13T08:12:00,mfh,39.70
2022-06-13T08:13:00,mfh,39.65
2022-06-13T08:14:00,mfh,40.98
2022-06-13T08:15:00,mfh,40.23
2022-06-13T08:16:00,mfh,40.33
2022-06-13T08:17:00,mfh,40.19
2022-06-13T08:18:00,mfh,39.64
2022-06-13T08:19:00,mfh,39.59
2022-06-13T08:20:00,mfh,39.59
2022-06-13T08:21:00,mfh,39.62
2022-06-13T08:22:00,mfh,39.37
2022-06-13T08:23:00,mfh,40.43
2022-06-13T08:24:00,mfh,40.06
2022-06-13T08:25:00,mfh,40.61
2022-06-13T08:26:00,mfh,39.37
2022-06-13T08:27:00,mfh,39.39
2022-06-13T08:28:00,mfh,39.68
2022-06-13T08:29:00,mfh,39.78
2022-06-13T08:30:00,mfh,39.89
2022-06-13T08:31:00,mfh,40.60
2022-06-13T08:32:00,mfh,40.80
2022-06-13T08:33:00,mfh,40.84
2022-06-13T08:34:00,mfh,40.81
2022-06-13T08:35:00,mfh,40.29
2022-06-13T08:36:00,mfh,40.46
2022-06-13T08:37:00,mfh,40.45
2022-06-13T08:38:00,mfh,40.93
2022-06-13T08:39:00,mfh,40.97
2022-06-13T08:40:00,mfh,41.49
2022-06-13T08:41:00,mfh,41.01
2022-06-13T08:42:00,mfh,41.04
2022-06-13T08:43:00,mfh,40.44
2022-06-13T08:44:00,mfh,40.37
2022-06-13T08:45:00,mfh,40.07
2022-06-13T08:46:00,mfh,40.03
2022-06-13T08:47:00,mfh,41.00
2022-06-13T08:48:00,mfh,40.77
2022-06-13T08:49:00,mfh,40.75
2022-06-13T08:50:00,mfh,40.87
2022-06-13T08:51:00,mfh,40.16
2022-06-13T08:52:00,mfh,40.11
2022-06-13T08:53:00,mfh,40.45
2022-06-13T08:54:00,mfh,40.73
2022-06-13T08:55:00,mfh,53.53
2022-06-13T08:56:00,mfh,53.45
2022-06-13T08:57:00,mfh,52.28
2022-06-13T08:58:00,mfh,52.31
2022-06-13T08:59:00,mfh,51.63
2022-06-13T09:00:00,mfh,51.26
2022-06-13T09:01:00,mfh,51.53
2022-06-13T09:02:00,mfh,51.33
2022-06-13T09:03:00,mfh,51.29
2022-06-13T09:04:00,mfh,51.86
2022-06-13T09:05:00,mfh,51.88
2022-06-13T09:06:00,mfh,51.86
2022-06-13T09:07:00,mfh,51.79
2022-06-13T09:08:00,mfh,51.40
2022-06-13T09:09:00,mfh,50.50
2022-06-13T09:10:00,mfh,50.58
2022-06-13T09:11:00,mfh,51.23
2022-06-13T09:12:00,mfh,51.81
2022-06-13T09:13:00,mfh,51.93
2022-06-13T09:14:00,mfh,51.73
2022-06-13T09:15:00,mfh,50.91
2022-06-13T09:16:00,mfh,51.28
2022-06-13T09:17:00,mfh,50.61
2022-06-13T09:18:00,mfh,50.52
2022-06-13T09:19:00,mfh,50.56
2022-06-13T09:20:00,mfh,51.31
2022-06-13T09:21:00,mfh,51.21
2022-06-13T09:22:00,mfh,51.51
2022-06-13T09:23:00,mfh,52.27
2022-06-13T09:24:00,mfh,50.73
2022-06-13T09:25:00,mfh,50.60
2022-06-13T09:26:00,mfh,50.57
2022-06-13T09:27:00,mfh,50.50
2022-06-13T09:28:00,mfh,51.18
2022-06-13T09:29:00,mfh,51.33
2022-06-13T09:30:00,mfh,51.27
2022-06-13T09:31:00,mfh,51.22
2022-06-13T09:32:00,mfh,50.62
2022-06-13T09:33:00,mfh,50.15
2022-06-13T09:34:00,mfh,50.16
2022-06-13T09:35:00,mfh,50.94
2022-06-13T09:36:00,mfh,50.27
2022-06-13T09:37:00,mfh,50.90
2022-06-13T09:38:00,mfh,50.99
2022-06-13T09:39:00,mfh,51.05
2022-06-13T09:40:00,mfh,50.94
2022-06-13T09:41:00,mfh,51.05
2022-06-13T09:42:00,mfh,50.41
2022-06-13T09:43:00,mfh,50.47
2022-06-13T09:44:00,mfh,50.37
2022-06-13T09:45:00,mfh,50.96
2022-06-13T09:46:00,mfh,51.26
2022-06-13T09:47:00,mfh,51.37
2022-06-13T09:48:00,mfh,51.19
2022-06-13T09:49:00,mfh,50.40
2022-06-13T09:50:00,mfh,51.38
2022-06-13T09:51:00,mfh,50.49
2022-06-13T09:52:00,mfh,50.60
2022-06-13T09:53:00,mfh,51.07
2022-06-13T09:54:00,mfh,51.05
2022-06-13T09:55:00,mfh,51.21
2022-06-13T09:56:00,mfh,51.45
2022-06-13T09:57:00,mfh,50.59
2022-06-13T09:58:00,mfh,51.02
2022-06-13T09:59:00,mfh,50.54
2022-06-13T10:00:00,mfh,50.33
2022-06-13T10:01:00,mfh,50.91
2022-06-13T10:02:00,mfh,50.55
2022-06-13T10:03:00,mfh,50.62
2022-06-13T10:04:00,mfh,50.45
2022-06-13T10:05:00,mfh,49.69
2022-06-13T10:06:00,mfh,49.70
2022-06-13T10:07:00,mfh,49.67
2022-06-13T10:08:00,mfh,50.15
2022-06-13T10:09:00,mfh,49.80
2022-06-13T10:10:00,mfh,50.43
2022-06-13T10:11:00,mfh,50.54
2022-06-13T10:12:00,mfh,50.47
2022-06-13T10:13:00,mfh,49.75
2022-06-13T10:14:00,mfh,49.70
2022-06-13T10:15:00,mfh,49.63
2022-06-13T10:16:00,mfh,49.75
2022-06-13T10:17:00,mfh,49.74
2022-06-13T10:18:00,mfh,50.41
2022-06-13T10:19:00,mfh,50.47
2022-06-13T10:20:00,mfh,50.40
2022-06-13T10:21:00,mfh,49.71
2022-06-13T10:22:00,mfh,49.49
2022-06-13T10:23:00,mfh,49.65
2022-06-13T10:24:00,mfh,49.62
2022-06-13T10:25:00,mfh,49.75
2022-06-13T10:26:00,mfh,50.62
2022-06-13T10:27:00,mfh,50.84
2022-06-13T10:28:00,mfh,50.51
2022-06-13T10:29:00,mfh,50.51
2022-06-13T10:30:00,mfh,49.74
2022-06-13T10:31:00,mfh,49.66
2022-06-13T10:32:00,mfh,49.75
2022-06-13T10:33:00,mfh,49.70
2022-06-13T10:34:00,mfh,50.15
2022-06-13T10:35:00,mfh,50.44
2022-06-13T10:36:00,mfh,50.51
2022-06-13T10:37:00,mfh,50.57
2022-06-13T10:38:00,mfh,50.05
2022-06-13T10:39:00,mfh,51.23
2022-06-13T10:40:00,mfh,50.63
2022-06-13T10:41:00,mfh,50.75
2022-06-13T10:42:00,mfh,50.66
2022-06-13T10:43:00,mfh,51.50
2022-06-13T10:44:00,mfh,50.73
2022-06-13T10:45:00,mfh,51.06
2022-06-13T10:46:00,mfh,51.03
2022-06-13T10:47:00,mfh,50.07
2022-06-13T10:48:00,mfh,50.11
2022-06-13T10:49:00,mfh,50.21
2022-06-13T10:50:00,mfh,50.24
2022-06-13T10:51:00,mfh,52.50
2022-06-13T10:52:00,mfh,50.27
2022-06-13T10:53:00,mfh,50.23
2022-06-13T10:54:00,mfh,50.26
2022-06-13T10:55:00,mfh,50.29
2022-06-13T10:56:00,mfh,51.75
2022-06-13T10:57:00,mfh,51.85
2022-06-13T10:58:00,mfh,51.75
2022-06-13T10:59:00,mfh,51.88
2022-06-13T11:00:00,mfh,51.50
2022-06-13T11:01:00,mfh,51.42
2022-06-13T11:02:00,mfh,51.36
2022-06-13T11:03:00,mfh,51.36
2022-06-13T11:04:00,mfh,52.14
2022-06-13T11:05:00,mfh,52.14
2022-06-13T11:06:00,mfh,51.80
2022-06-13T11:07:00,mfh,52.79
2022-06-13T11:08:00,mfh,51.83
2022-06-13T11:09:00,mfh,51.76
2022-06-13T11:10:00,mfh,51.59
2022-06-13T11:11:00,mfh,51.75
2022-06-13T11:12:00,mfh,51.12
2022-06-13T11:13:00,mfh,51.00
2022-06-13T11:14:00,mfh,51.01
2022-06-13T11:15:00,mfh,51.00
2022-06-13T11:16:00,mfh,50.43
2022-06-13T11:17:00,mfh,50.48
2022-06-13T11:18:00,mfh,50.47
2022-06-13T11:19:00,mfh,50.49
2022-06-13T11:20:00,mfh,51.68
2022-06-13T11:21:00,mfh,51.50
2022-06-13T11:22:00,mfh,52.27
2022-06-13T11:23:00,mfh,51.60
2022-06-13T11:24:00,mfh,51.66
2022-06-13T11:25:00,mfh,51.71
2022-06-13T11:26:00,mfh,65.08
2022-06-13T11:27:00,mfh,66.39
2022-06-13T11:28:00,mfh,66.33
2022-06-13T11:29:00,mfh,66.58
2022-06-13T11:30:00,mfh,66.46
2022-06-13T11:31:00,mfh,65.61
2022-06-13T11:32:00,mfh,65.41
2022-06-13T11:33:00,mfh,64.62
2022-06-13T11:34:00,mfh,64.91
2022-06-13T11:35:00,mfh,64.66
2022-06-13T11:36:00,mfh,65.01
2022-06-13T11:37:00,mfh,65.25
2022-06-13T11:38:00,mfh,65.25
2022-06-13T11:39:00,mfh,65.17
2022-06-13T11:40:00,mfh,65.20
2022-06-13T11:41:00,mfh,64.51
2022-06-13T11:42:00,mfh,64.51
2022-06-13T11:43:00,mfh,64.48
2022-06-13T11:44:00,mfh,64.29
2022-06-13T11:45:00,mfh,57.70
2022-06-13T11:46:00,mfh,57.84
2022-06-13T11:47:00,mfh,57.67
2022-06-13T11:48:00,mfh,57.78
2022-06-13T11:49:00,mfh,56.98
2022-06-13T11:50:00,mfh,57.24
2022-06-13T11:51:00,mfh,57.27
2022-06-13T11:52:00,mfh,57.26
2022-06-13T11:53:00,mfh,57.79
2022-06-13T11:54:00,mfh,57.73
2022-06-13T11:55:00,mfh,57.80
2022-06-13T11:56:00,mfh,58.09
2022-06-13T11:57:00,mfh,65.62
2022-06-13T11:58:00,mfh,66.39
2022-06-13T11:59:00,mfh,66.33
2022-06-13T12:00:00,mfh,66.03
2022-06-13T12:01:00,mfh,66.34
2022-06-13T12:02:00,mfh,66.35
2022-06-13T12:03:00,mfh,65.91
2022-06-13T12:04:00,mfh,66.83
2022-06-13T12:05:00,mfh,65.30
2022-06-13T12:06:00,mfh,65.20
2022-06-13T12:07:00,mfh,65.12
2022-06-13T12:08:00,mfh,65.87
2022-06-13T12:09:00,mfh,65.85
2022-06-13T12:10:00,mfh,65.75
2022-06-13T12:11:00,mfh,66.24
2022-06-13T12:12:00,mfh,66.28
2022-06-13T12:13:00,mfh,64.90
2022-06-13T12:14:00,mfh,65.16
2022-06-13T12:15:00,mfh,65.05
2022-06-13T12:16:00,mfh,57.65
2022-06-13T12:17:00,mfh,57.53
2022-06-13T12:18:00,mfh,58.24
2022-06-13T12:19:00,mfh,58.38
2022-06-13T12:20:00,mfh,58.43
2022-06-13T12:21:00,mfh,58.45
2022-06-13T12:22:00,mfh,58.08
2022-06-13T12:23:00,mfh,57.41
2022-06-13T12:24:00,mfh,57.39
2022-06-13T12:25:00,mfh,58.50
2022-06-13T12:26:00,mfh,58.01
2022-06-13T12:27:00,mfh,57.98
2022-06-13T12:28:00,mfh,57.99
2022-06-13T12:29:00,mfh,57.84
2022-06-13T12:30:00,mfh,57.27
2022-06-13T12:31:00,mfh,57.23
2022-06-13T12:32:00,mfh,57.21
2022-06-13T12:33:00,mfh,57.09
2022-06-13T12:34:00,mfh,57.77
2022-06-13T12:35:00,mfh,57.81
2022-06-13T12:36:00,mfh,57.27
2022-06-13T12:37:00,mfh,57.16
2022-06-13T12:38:00,mfh,56.45
2022-06-13T12:39:00,mfh,57.20
2022-06-13T12:40:00,mfh,57.35
2022-06-13T12:41:00,mfh,57.13
2022-06-13T12:42:00,mfh,57.74
2022-06-13T12:43:00,mfh,57.88
2022-06-13T12:44:00,mfh,57.79
2022-06-13T12:45:00,mfh,57.84
2022-06-13T12:46:00,mfh,57.62
2022-06-13T12:47:00,mfh,57.35
2022-06-13T12:48:00,mfh,57.39
2022-06-13T12:49:00,mfh,57.34
2022-06-13T12:50:00,mfh,57.39
2022-06-13T12:51:00,mfh,57.66
2022-06-13T12:52:00,mfh,57.89
2022-06-13T12:53:00,mfh,57.84
2022-06-13T12:54:00,mfh,58.07
2022-06-13T12:55:00,mfh,57.23
2022-06-13T12:56:00,mfh,56.91
2022-06-13T12:57:00,mfh,56.94
2022-06-13T12:58:00,mfh,56.78
2022-06-13T12:59:00,mfh,57.36
2022-06-13T13:00:00,mfh,57.35
2022-06-13T13:01:00,mfh,57.41
2022-06-13T13:02:00,mfh,57.41
2022-06-13T13:03:00,mfh,56.75
2022-06-13T13:04:00,mfh,56.94
2022-06-13T13:05:00,mfh,56.77
2022-06-13T13:06:00,mfh,57.19
2022-06-13T13:07:00,mfh,58.40
2022-06-13T13:08:00,mfh,57.51
2022-06-13T13:09:00,mfh,57.98
2022-06-13T13:10:00,mfh,58.19
2022-06-13T13:11:00,mfh,58.14
2022-06-13T13:12:00,mfh,59.14
2022-06-13T13:13:00,mfh,58.29
2022-06-13T13:14:00,mfh,58.46
2022-06-13T13:15:00,mfh,58.52
2022-06-13T13:16:00,mfh,58.22
2022-06-13T13:17:00,mfh,57.77
2022-06-13T13:18:00,mfh,57.92